Home   Weather   Makassar   Past weeks

Flag for Indonesia Past Weather in Makassar, South Sulawesi, Indonesia — Yesterday and Last 2 Weeks

Now
75 °F

Passing clouds.


Feels Like: 73 °F
Forecast: 78 / 86 °F
Wind: 2 mph from North

Location: Ujung Pandang / Hasanuddin

Current Time: Jan 17, 2017 at 9:22:59 pm

Latest Report: Jan 17, 2017 at 9:00 pm


Visibility: 5 mi

Pressure: 29.89 "Hg

Humidity: 100%

Dew Point: 75 °F

Location of MakassarLocation

Past Weather in Makassar — Graph

°F

Makassar Temperature Yesterday

Maximum temperature yesterday: 90 °F (at 12:30 pm)
Minimum temperature yesterday: 75 °F (at 12:00 am)
Average temperature yesterday: 81 °F

High & Low Weather Summary for the Past Weeks

 TemperatureHumidityPressure
High93 °F (Jan 11, 12:30 pm)100% (Jan 2, 9:00 pm)29.86 "Hg (Jan 2, 9:00 pm)
Low73 °F (Jan 6, 3:30 am)53% (Jan 11, 1:00 pm)29.65 "Hg (Jan 7, 4:30 pm)
Average80 °F93%29.78 "Hg
* Reported Jan 2 8:00 pm — Jan 17 8:00 pm, Makassar, Weather by CustomWeather, © 2017

Note: Actual official high and low records may vary slightly from our data, if they occured in-between our weather recording intervals... More about our weather records

Advertising

Makassar Weather History for the Previous 24 Hours

Scroll right to see more
 ConditionsComfort  
Time TempWeatherWind HumidityBarometerVisibility
8:00 pm
Tue, Jan 17
75 °FPassing clouds.2 mph100%29.86 "Hg4 mi
7:30 pm75 °FLight rain. Passing clouds.5 mph100%29.86 "Hg4 mi
7:00 pm75 °FLight rain. Passing clouds.3 mph100%29.86 "Hg4 mi
6:30 pm75 °FLight rain. Passing clouds.3 mph100%29.86 "Hg4 mi
6:00 pm75 °FLight rain. Scattered clouds.5 mph100%N/A3 mi
5:30 pm75 °FLight rain. Scattered clouds.6 mph100%29.86 "Hg3 mi
5:00 pm77 °FLight rain. Scattered clouds.6 mph100%29.83 "Hg3 mi
4:30 pm77 °FLight rain. Scattered clouds.6 mph100%29.83 "Hg4 mi
4:00 pm77 °FLight rain. Scattered clouds.6 mph100%N/A4 mi
3:30 pm77 °FLight rain. Scattered clouds.10 mph100%29.80 "Hg4 mi
3:00 pm79 °FRain. Scattered clouds.12 mph100%N/A2 mi
2:30 pm84 °FLight rain. Scattered clouds.10 mph74%29.80 "Hg4 mi
2:00 pm88 °FScattered clouds.7 mph66%29.80 "HgN/A
1:30 pm88 °FScattered clouds.8 mph66%29.83 "HgN/A
1:00 pm86 °FScattered clouds.8 mph75%29.83 "Hg6 mi
12:30 pm86 °FPassing clouds.9 mph75%29.83 "Hg6 mi
12:00 pm86 °FPassing clouds.8 mph75%29.86 "Hg6 mi
11:30 am82 °FPassing clouds.7 mph84%29.86 "Hg6 mi
11:19 am81 °FScattered clouds.7 mph94%29.86 "Hg6 mi
11:00 am79 °FLight rain. Scattered clouds.10 mph89%29.86 "Hg4 mi
10:30 am82 °FLight rain. Scattered clouds.16 mph84%29.86 "Hg5 mi
10:08 am81 °FLight rain. Scattered clouds.22 mph89%29.86 "Hg5 mi
9:30 am88 °FWarm.6 mph66%29.86 "HgN/A
9:00 am88 °FPassing clouds.3 mph70%29.86 "HgN/A
8:30 am86 °FPassing clouds.2 mph75%29.86 "HgN/A
8:00 am82 °FPassing clouds.2 mph84%29.86 "HgN/A
7:30 am81 °FPassing clouds.3 mph84%29.86 "HgN/A
7:00 am77 °FPassing clouds.2 mph94%29.83 "HgN/A
6:30 am75 °FPassing clouds.2 mph94%29.83 "HgN/A
6:00 am73 °FPassing clouds.3 mph100%29.83 "Hg5 mi
5:30 am73 °FPassing clouds.3 mph100%29.80 "Hg5 mi
5:00 am73 °FPassing clouds.1 mph100%29.80 "Hg5 mi
4:30 am73 °FPassing clouds.2 mph100%29.80 "Hg5 mi
4:00 am73 °FPassing clouds.2 mph100%29.80 "Hg5 mi
3:30 am73 °FPassing clouds.2 mph100%29.80 "Hg5 mi
3:00 am73 °FPassing clouds.2 mph100%29.80 "Hg5 mi
2:30 am73 °FPassing clouds.3 mph100%29.80 "Hg5 mi
2:00 am73 °FPassing clouds.2 mph100%29.80 "Hg5 mi
1:30 am75 °FPassing clouds.2 mph100%29.80 "Hg5 mi
1:00 am75 °FPassing clouds.2 mph94%29.80 "Hg5 mi
12:30 am75 °FPassing clouds.2 mph94%29.83 "Hg5 mi
12:00 am75 °FPassing clouds.2 mph100%29.83 "Hg5 mi
11:30 pm
Mon, Jan 16
75 °FPassing clouds.2 mph100%29.83 "Hg5 mi
11:00 pm77 °FPassing clouds.2 mph100%29.83 "Hg5 mi
10:30 pm77 °FPassing clouds.3 mph94%29.83 "Hg5 mi
10:00 pm77 °FPassing clouds.1 mph100%29.83 "Hg5 mi
9:30 pm77 °FPassing clouds.2 mph100%29.83 "Hg5 mi
9:00 pm79 °FPassing clouds.5 mph100%29.83 "Hg5 mi
Weather by CustomWeather, © 2017

See weather overviewHow to use our weather pages